| time (UTC) | temp F | wind direction | speed knots | gust knots | rain 1hr in | rain 24hr in | rain mn in | humidity % | barometer mb |
| 20260831164504 | 66 | 162 | 1.7 | 7.0 | 0.00 | 0.00 | 0.00 | 86 | 1006.5 |
| 20260831160004 | 66 | 180 | 2.6 | 8.7 | 0.00 | 0.01 | 0.00 | 85 | 1006.7 |
| 20260831141504 | 67 | 219 | 2.6 | 7.0 | 0.00 | 0.07 | 0.00 | 81 | 1007.4 |
| 20260831140005 | 67 | 188 | 1.7 | 10.4 | 0.00 | 0.07 | 0.00 | 81 | 1007.6 |
| 20260831134505 | 66 | 181 | 2.6 | 10.4 | 0.00 | 0.07 | 0.00 | 79 | 1007.4 |
| 20260831133005 | 66 | 175 | 1.7 | 7.8 | 0.00 | 0.09 | 0.00 | 79 | 1007.4 |
| 20260831131504 | 66 | 197 | 2.6 | 7.8 | 0.00 | 0.09 | 0.00 | 79 | 1007.6 |
| 20260831121504 | 68 | 207 | 2.6 | 7.8 | 0.00 | 0.09 | 0.00 | 76 | 1007.4 |
| 20260831111504 | 68 | 205 | 1.7 | 7.0 | 0.00 | 0.09 | 0.00 | 77 | 1007.3 |
| 20260831104504 | 68 | 214 | 2.6 | 10.4 | 0.00 | 0.09 | 0.00 | 78 | 1007.6 |
| 20260831103004 | 69 | 213 | 4.3 | 10.4 | 0.00 | 0.09 | 0.00 | 77 | 1008.0 |
| 20260831101505 | 67 | 200 | 2.6 | 8.7 | 0.00 | 0.10 | 0.00 | 80 | 1008.0 |
| 20260831100004 | 67 | 208 | 2.6 | 7.8 | 0.00 | 0.10 | 0.00 | 80 | 1008.0 |
| 20260831091504 | 66 | 204 | 2.6 | 10.4 | 0.00 | 0.10 | 0.00 | 81 | 1007.8 |
| 20260831084504 | 66 | 204 | 2.6 | 6.1 | 0.00 | 0.10 | 0.00 | 83 | 1007.5 |
| 20260831083006 | 66 | 219 | 1.7 | 7.8 | 0.00 | 0.10 | 0.00 | 83 | 1007.5 |
| 20260831080004 | 65 | 203 | 1.7 | 6.1 | 0.00 | 0.10 | 0.00 | 83 | 1007.5 |
| 20260831071505 | 63 | 249 | 1.7 | 4.3 | 0.00 | 0.10 | 0.00 | 86 | 1007.6 |
| 20260831070003 | 63 | 231 | 1.7 | 5.2 | 0.00 | 0.10 | 0.00 | 87 | 1007.6 |
| 20260831063004 | 62 | 255 | 2.6 | 7.0 | 0.00 | 0.10 | 0.00 | 88 | 1007.8 |
| 20260831060005 | 60 | 165 | 3.5 | 7.8 | 0.00 | 0.10 | 0.00 | 90 | 1007.5 |
| 20260831054504 | 60 | 206 | 2.6 | 7.0 | 0.00 | 0.10 | 0.00 | 90 | 1007.4 |
| 20260831053005 | 60 | 207 | 2.6 | 7.0 | 0.00 | 0.10 | 0.00 | 91 | 1007.4 |
| 20260831051505 | 60 | 214 | 2.6 | 7.8 | 0.00 | 0.10 | 0.00 | 91 | 1007.4 |
| 20260831043004 | 60 | 211 | 2.6 | 7.0 | 0.00 | 0.10 | 0.00 | 92 | 1006.8 |
| 20260831024504 | 61 | 221 | 1.7 | 11.3 | 0.00 | 0.10 | 0.00 | 91 | 1006.1 |
| 20260831023005 | 61 | 244 | 4.3 | 8.7 | 0.00 | 0.10 | 0.00 | 91 | 1006.1 |
| 20260831021504 | 61 | 204 | 3.5 | 10.4 | 0.00 | 0.10 | 0.00 | 91 | 1006.1 |
| 20260831020004 | 61 | 211 | 2.6 | 8.7 | 0.00 | 0.10 | 0.00 | 91 | 1006.0 |
| 20260831014504 | 62 | 207 | 2.6 | 8.7 | 0.00 | 0.10 | 0.00 | 90 | 1005.9 |
| 20260831011504 | 62 | 216 | 1.7 | 8.7 | 0.00 | 0.10 | 0.00 | 89 | 1005.7 |
| 20260831010004 | 63 | 218 | 1.7 | 8.7 | 0.00 | 0.10 | 0.00 | 88 | 1005.7 |
| 20260830234504 | 64 | 251 | 1.7 | 10.4 | 0.00 | 0.10 | 0.00 | 88 | 1005.2 |
| 20260830233003 | 64 | 271 | 2.6 | 11.3 | 0.00 | 0.10 | 0.00 | 88 | 1005.5 |
| 20260830231504 | 64 | 242 | 2.6 | 8.7 | 0.00 | 0.10 | 0.00 | 89 | 1005.4 |
| 20260830230004 | 64 | 243 | 1.7 | 5.2 | 0.00 | 0.10 | 0.00 | 89 | 1005.2 |
| 20260830224504 | 65 | 273 | 1.7 | 11.3 | 0.00 | 0.10 | 0.00 | 89 | 1003.9 |
| 20260830220005 | 65 | 211 | 2.6 | 7.0 | 0.00 | 0.10 | 0.00 | 92 | 1003.9 |
| 20260830214504 | 65 | 204 | 2.6 | 8.7 | 0.00 | 0.10 | 0.10 | 92 | 1003.5 |
| 20260830213005 | 65 | 211 | 2.6 | 7.8 | 0.00 | 0.10 | 0.10 | 92 | 1003.5 |
| 20260830211504 | 65 | 203 | 3.5 | 7.0 | 0.00 | 0.10 | 0.10 | 92 | 1003.5 |
| 20260830210004 | 65 | 209 | 3.5 | 7.8 | 0.00 | 0.10 | 0.10 | 92 | 1003.2 |
| 20260830204504 | 65 | 175 | 2.6 | 7.8 | 0.00 | 0.10 | 0.10 | 92 | 1003.1 |
| 20260830201504 | 65 | 213 | 3.5 | 10.4 | 0.00 | 0.10 | 0.10 | 93 | 1002.6 |
| 20260830193005 | 65 | 204 | 4.3 | 10.4 | 0.00 | 0.10 | 0.10 | 92 | 1002.7 |
| 20260830191504 | 65 | 179 | 4.3 | 10.4 | 0.00 | 0.10 | 0.10 | 92 | 1002.8 |
| 20260830183004 | 65 | 197 | 4.3 | 12.2 | 0.00 | 0.10 | 0.10 | 92 | 1003.0 |
| 20260830181504 | 65 | 202 | 3.5 | 12.2 | 0.00 | 0.10 | 0.10 | 92 | 1002.8 |
| 20260830174504 | 65 | 202 | 4.3 | 13.0 | 0.00 | 0.10 | 0.10 | 93 | 1002.9 |
| 20260830173004 | 65 | 188 | 3.5 | 13.0 | 0.00 | 0.10 | 0.10 | 93 | 1002.9 |
| 20260830171504 | 65 | 187 | 5.2 | 13.0 | 0.01 | 0.10 | 0.10 | 93 | 1002.8 |